Location: Auckland
(36.8670°S, 174.7670°E)
Time: 13:36:42
(UTC+13:00)

Nimbus 7 Rocket - Pass Details

Date: 24 January 2019
Orbit: 922 x 965 km, 99.4° (Epoch: 13 October)

Event Time Altitude Azimuth Distance (km) Brightness Sun altitude
Exits shadow 22:38:07 37° 47° (NE) 1,414 4.8 -20.4°
Maximum altitude 22:40:20 60° 108° (ESE) 1,075 4.5 -20.7°
Drops below altitude 10° 22:46:14 10° 186° (S) 2,691 7.5 -21.5°
Sets 22:48:44 0° 189° (S) 3,648 8.4 -21.8°
